Regional Weather Roundup
Issued by NWS

Home | Current Version | Previous Version | Text Only | Print | Product List | Glossary On
Versions: 1 2 3 4 5 6 7 8 9 10 11 12 13 14 15 16 17 18 19 20 21 22 23 24 25 26 27 28 29 30 31 32 33 34 35 36 37 38 39 40 41 42 43 44 45 46 47 48 49 50
000
ASUS43 KDMX 040007
RWRIA

WEATHER ROUNDUP FOR IOWA
NATIONAL WEATHER SERVICE DES MOINES IA
700 PM CDT MON AUG 03 2015

NOTE: "FAIR" INDICATES FEW OR NO CLOUDS BELOW 12,000 FEET WITH NO
SIGNIFICANT WEATHER AND/OR OBSTRUCTIONS TO VISIBILITY.

* - THESE STATIONS ARE NOT NWS STATIONS...THUS NOT UNDER NWS
QUALITY CONTROL.  THEY ALSO DO NOT REPORT WEATHER SUCH
AS PRECIPITATION OR FOG.

IAZ001>003-012>014-020>022-031>034-043>046-040100-
   NORTHWEST IOWA

CITY           SKY/WX    TMP DP  RH WIND       PRES   REMARKS
CARROLL *      SUNNY     77  63  61 CALM      29.95F
CHEROKEE *     SUNNY     77  61  58 W3        29.96S
DENISON *      SUNNY     75  63  64 NW3       29.94S
LE MARS *      SUNNY     79  61  53 CALM      29.96S HX  80
ORANGE CITY *  SUNNY     75  61  60 CALM      29.96F
SHELDON *      SUNNY     77  61  57 W3        29.94F
SIOUX CITY     MOSUNNY   79  57  46 CALM      29.94F HX  80
6HR MIN TEMP:  78; 6HR MAX TEMP:  82;

SPENCER        SUNNY     79  56  45 W9        29.95F HX  80
6HR MIN TEMP:  78; 6HR MAX TEMP:  82;

STORM LAKE *   SUNNY     75  59  57 NW5       29.97F
$$

IAZ055>058-069>071-079>083-090>094-040100-
   SOUTHWEST IOWA

CITY           SKY/WX    TMP DP  RH WIND       PRES   REMARKS
ATLANTIC *     MOSUNNY   77  64  65 NE5       29.95S
AUDUBON *      SUNNY     77  64  65 CALM      29.97S
CLARINDA *     SUNNY     79  66  65 NE6       29.95S HX  81
COUNCIL BLFS * SUNNY     79  64  61 NE6       29.94F HX  81
CRESTON *      MOSUNNY   75  66  73 NE3       29.96F
HARLAN  *      MOSUNNY   75  70  83 NE5       29.99S
LAMONI         LGT RAIN  79  66  64 NE3       29.94F HX  81
6HR MIN TEMP:  77; 6HR MAX TEMP:  82; 6HR PCP: TRACE;

RED OAK *      SUNNY     79  66  65 NE6       29.94S HX  81
SHENANDOAH *   SUNNY     79  66  65 NE7       29.94S HX  81
$$

IAZ047>049-059>061-072>074-084-040100-
   CENTRAL IOWA

CITY           SKY/WX    TMP DP  RH WIND       PRES   REMARKS
AMES           SUNNY     76  58  53 NW7       29.94S
6HR MIN TEMP:  76; 6HR MAX TEMP:  80;

ANKENY *       SUNNY     77  59  53 NW3       29.93F
CHARITON *     SUNNY     77  64  65 CALM      29.94S
DES MOINES     MOSUNNY   80  54  40 NW8       29.93S HX  80
6HR MIN TEMP:  80; 6HR MAX TEMP:  84;

GRINNELL*      SUNNY     75  57  53 W3        29.94S
KNOXVILLE *    SUNNY     79  55  44 N8        29.92F HAZE
MARSHALLTOWN   SUNNY     76  59  55 MISG      29.93S
6HR MIN TEMP:  76; 6HR MAX TEMP:  79;

PELLA *        SUNNY     78  64  62 CALM      29.94S
PERRY *          N/A     77  63  61 CALM      29.94F
$$

IAZ004>006-015-016-023>025-035-036-040100-
   NORTH CENTRAL IOWA

CITY           SKY/WX    TMP DP  RH WIND       PRES   REMARKS
ALGONA *       SUNNY     77  57  50 N5        29.94S
CLARION *      SUNNY     77  59  53 NW6       29.94S
ESTHERVILLE    MOSUNNY   77  56  48 NW8       29.94F
6HR MIN TEMP:  76; 6HR MAX TEMP:  79;

FORT DODGE *   SUNNY     77  57  50 W3        29.96S
MASON CITY     SUNNY     77  56  48 NW12      29.94F
6HR MIN TEMP:  77; 6HR MAX TEMP:  80;

FOREST CITY *  SUNNY     73  54  49 NW7       29.94S
IOWA FALLS *     N/A     76  57  51 W5        29.95S
$$

IAZ007>011-017>019-026>030-037>042-050>054-066-040100-
   NORTHEAST IOWA

CITY           SKY/WX    TMP DP  RH WIND       PRES   REMARKS
CEDAR RAPIDS   SUNNY     75  58  55 NW9       29.91S
6HR MIN TEMP:  75; 6HR MAX TEMP:  79;

CHARLES CITY * SUNNY     73  55  53 NW9       29.93S
CLINTON *      SUNNY     75  57  53 W7        29.91F
DECORAH *      SUNNY     75  54  46 VRB7G14   29.90F
DUBUQUE        SUNNY     76  53  44 NW13      29.90F
6HR MIN TEMP:  76; 6HR MAX TEMP:  79;

MONTICELLO *   SUNNY     77  55  47 NW7       29.90S
OELWEIN *      SUNNY     75  59  57 NW5       29.92S
WATERLOO       SUNNY     77  56  48 NW7       29.91S
6HR MIN TEMP:  77; 6HR MAX TEMP:  80;

$$

IAZ064-065-067-068-078-040100-
   EAST CENTRAL IOWA

CITY           SKY/WX    TMP DP  RH WIND       PRES   REMARKS
DAVENPORT      SUNNY     76  57  51 NW6       29.90S
6HR MIN TEMP:  76; 6HR MAX TEMP:  80;

IOWA CITY      SUNNY     78  54  43 NW9       29.92S
6HR MIN TEMP:  78; 6HR MAX TEMP:  81;

MT. PLEASANT * SUNNY     80  50  35 NW5       29.92S HX  80
MUSCATINE *    SUNNY     79  57  47 NW6       29.90S HX  80
QUAD CITIES    SUNNY     79  53  40 W10       29.88F
6HR MIN TEMP:  79; 6HR MAX TEMP:  83;

$$

IAZ062-063-075>077-085>089-095>099-040100-
   SOUTHEAST IOWA

CITY           SKY/WX    TMP DP  RH WIND       PRES   REMARKS
BURLINGTON     SUNNY     78  59  51 NW5       29.91S
6HR MIN TEMP:  78; 6HR MAX TEMP:  82;

FAIRFIELD *    SUNNY     77  61  57 CALM      29.92S
FORT MADISON * SUNNY     77  63  61 CALM      29.92S
KEOKUK *       SUNNY     81  63  54 N6        29.90S HX  82
OSKALOOSA *      N/A     75  60  59 N3        29.93S
CENTERVILLE *  MOSUNNY   77  64  65 CALM      29.95S
OTTUMWA        SUNNY     77  63  61 NW6       29.91R
6HR MIN TEMP:  77; 6HR MAX TEMP:  81;

WASHINGTON *   SUNNY     77  59  53 W7        29.93S
$$

ABBREVIATIONS USED IN REMARKS
   TC - TEMPERATURES IN CELSIUS
  WCI - WIND CHILL INDEX
   HX - HEAT INDEX
  VSB - VISIBILITY
$$




USA.gov is the U.S. government's official web portal to all federal, state and local government web resources and services.